DW0969 Saint-Martin Vesubie FR current weather conditions

sailwx.info

Wind from 194

Air temperature 8.9° C
Dewpoint 0.6° C

Last reported at 2020-Feb-21 16:46 UTC.
Time now 2020-Feb-21 17:38 UTC

Location: N 44°05' E 007°15'.
View on Google Maps.

See reports from other nearby stations

  
Tides and Currents Weather Stations Pressure Air Temp Water Temp Dewpoint Dewpoint Depression Visibility Wind Speed Wind Dir Waves Ship Positions
date/time (UTC)wind fromknots sea level pressurealtimeterstation pressurevisibilityair tempwater tempwave heightnotes
2020-Feb-21 16:46 194 8.9
2020-Feb-21 16:30 194 9.4
2020-Feb-21 16:00 194 10.0
2020-Feb-21 14:15 190 11.1
2020-Feb-21 13:45 200 0 gusting 2 11.7
2020-Feb-21 13:30 196 11.7
2020-Feb-21 13:16 196 11.7
2020-Feb-21 13:00 196 11.1
2020-Feb-21 12:45 196 11.1
2020-Feb-21 12:30 196 11.1
2020-Feb-21 11:48 196 11.7
2020-Feb-21 11:15 196 11.1
2020-Feb-21 10:48 196 10.0
2020-Feb-21 10:15 197 8.9
2020-Feb-21 09:46 197 8.3
2020-Feb-21 09:30 197 7.8
2020-Feb-21 09:15 197 5.6
2020-Feb-21 09:00 197 3.9
2020-Feb-21 08:47 197 3.3
2020-Feb-21 08:18 197 2.8
2020-Feb-21 07:45 197 3.3
2020-Feb-21 07:16 197 3.3
2020-Feb-21 07:00 197 3.3
2020-Feb-21 06:30 197 2.8
2020-Feb-21 06:16 196 2.8
2020-Feb-21 06:00 196 2.8
2020-Feb-21 05:17 197 2.2
2020-Feb-21 04:45 197 1.7
2020-Feb-21 04:16 197 1.7
2020-Feb-21 03:45 197 1.1
2020-Feb-21 03:15 197 1.7
2020-Feb-21 02:46 197 1.7
2020-Feb-21 02:30 197 1.1
2020-Feb-21 02:16 197 1.1
2020-Feb-21 01:48 197 1.1
2020-Feb-21 01:15 197 1.1
2020-Feb-21 00:46 197 1.1
2020-Feb-21 00:15 197 1.1
2020-Feb-20 23:46 197 0 gusting 3 0.6
2020-Feb-20 23:18 197 1.1
2020-Feb-20 22:48 197 1.1
2020-Feb-20 22:17 197 1.1
2020-Feb-20 21:46 197 1.1
2020-Feb-20 21:17 197 1.7
2020-Feb-20 20:46 197 2.2
2020-Feb-20 20:30 197 2.2
2020-Feb-20 20:18 197 2.2
2020-Feb-20 19:47 197 1.7
2020-Feb-20 19:17 197 1.7
2020-Feb-20 18:46 197 2.2
2020-Feb-20 18:16 197 2.8
2020-Feb-20 17:46 197 3.9
2020-Feb-20 17:17 197 4.4
2020-Feb-20 16:45 197 6.1
2020-Feb-20 15:47 197 7.8
2020-Feb-20 15:15 197 10.0
2020-Feb-20 14:46 191 10.0
2020-Feb-20 14:30 207 0 gusting 4 10.0
2020-Feb-20 13:47 175 0 gusting 4 10.6
2020-Feb-20 12:46 183 0 gusting 5 10.0
2020-Feb-20 11:46 194 1 gusting 5 9.4
2020-Feb-20 10:46 207 0 gusting 6 8.9
2020-Feb-20 09:47 019 7.8
2020-Feb-20 09:30 019 6.7
2020-Feb-20 08:46 019 3.9
2020-Feb-20 07:46 019 1.7
2020-Feb-20 06:46 349 0.6
2020-Feb-20 05:46 348 1.7
2020-Feb-20 04:47 028 1.1
2020-Feb-20 04:00 027 1.7
2020-Feb-20 03:45 027 1.7
2020-Feb-20 03:30 027 1.7
2020-Feb-20 03:17 027 1.7
2020-Feb-20 03:00 027 2.2
2020-Feb-20 02:16 027 2.8
2020-Feb-20 02:00 027 2.2
2020-Feb-20 01:17 027 2.8
2020-Feb-20 00:16 027 3.3
2020-Feb-19 23:17 030 3.9
2020-Feb-19 22:18 035 3.9
2020-Feb-19 22:00 029 3.9
2020-Feb-19 21:30 021 3.3
2020-Feb-19 21:15 030 3.3
2020-Feb-19 21:00 030 3.3
2020-Feb-19 20:16 024 3.3
2020-Feb-19 19:18 005 3.3
2020-Feb-19 18:17 184 3.9
2020-Feb-19 18:00 184 4.4
2020-Feb-19 17:16 184 5.6